Вернуться в каталог

LING QIAO

АктивенНаукаSSO
NORAD 40136·PAYLOAD·🇨🇳 China

Запущен Sep 4, 2014 с Jiuquan Satellite Launch Center

Loading…

Ближайшие Пролёты (ближайшие 24 часа)

TLE

СвежийSource: Space-Track

Эпоха: Sep 14, 2026, 22:50 UTC

1 40136U 14051A   26257.95141326  .00000065  00000-0  42432-4 0  9998
2 40136  98.7109 259.8371 0019700 270.7831  89.1094 14.30282642627839

Отслеживайте LING QIAO в реальном времени с AllMySat

Download on the App Store